RH
42 28 23 23 27 26 26 19 19 22 22 19 17 19 20 19 24 27 44 43 42 44 47 59 84 82 78 73 71 70 68 64 63 64 68 65 54 52 60 56 55 58 57 59 63 63 65 66 68
32 24 24 23 27 29 22 19 20 21 19 17 17 20 21 21 26 35 39 46 41 43 47 48 85 83 77 74 72 69 67 63 66 71 64 57 51 49 53 56 58 60 58 58 59 61 60 59 59
31 23 24 26 26 28 24 20 16 21 18 16 20 22 21 26 33 30 36 44 42 44 46 51 86 83 77 76 72 69 65 62 69 72 61 57 53 52 53 56 60 63 61 60 61 63 64 65 66
27 25 24 28 28 24 24 18 22 21 18 17 18 22 22 29 31 33 39 47 43 43 45 76 87 84 82 78 73 69 64 63 67 64 59 57 55 56 55 58 65 66 63 63 64 64 64 65 64
28 26 28 32 26 21 21 21 20 22 21 18 16 20 22 29 33 37 45 47 43 45 46 58 88 85 84 79 75 70 65 62 62 62 60 62 62 61 62 67 69 69 65 64 65 67 66 68 69
33 27 30 29 24 24 22 19 21 20 19 18 17 18 20 28 36 42 45 44 43 48 51 51 84 87 85 81 78 73 68 63 65 64 62 65 68 74 68 70 70 69 66 66 67 69 70 69 68
33 31 26 25 24 23 24 19 22 19 19 19 18 20 20 26 39 45 44 43 47 46 50 50 62 75 89 86 82 79 73 71 70 69 66 70 72 80 74 74 71 69 67 70 72 73 72 73 79
34 30 28 30 25 27 22 23 21 21 20 18 18 20 21 25 42 44 45 46 47 50 50 50 52 58 60 65 87 84 82 80 76 75 76 82 79 78 82 81 78 74 73 74 75 78 80 79 72
45 36 34 32 30 25 27 26 23 24 24 23 20 21 24 30 43 47 49 50 49 51 52 52 48 52 56 56 68 84 87 84 81 74 84 79 48 50 54 82 81 76 77 76 78 74 71 66 66
43 42 33 26 26 29 26 30 28 28 25 23 24 22 24 33 39 46 45 44 48 49 50 50 50 52 57 56 58 57 54 55 49 48 49 44 44 43 46 68 79 76 77 74 63 55 47 52 33
44 45 30 40 36 36 36 38 33 30 30 25 24 23 26 27 30 36 37 35 41 42 46 50 56 55 58 59 57 52 51 49 49 50 49 46 44 46 46 48 50 54 69 43 41 36 31 32 30
52 41 41 39 42 47 44 37 40 34 28 21 28 28 30 28 27 26 32 33 36 43 48 52 60 66 60 56 56 49 48 50 50 50 46 43 45 48 46 46 49 45 38 41 38 29 27 24 22
50 39 44 42 48 44 40 43 39 35 29 28 29 32 32 28 28 26 24 27 33 39 43 51 57 63 63 61 55 52 49 52 50 51 47 46 47 49 51 44 40 40 38 32 28 25 20 18 17
46 51 47 46 43 41 46 39 36 34 28 27 28 28 25 26 25 25 25 25 23 30 34 41 53 61 60 61 56 53 50 51 52 49 50 49 50 55 49 44 40 36 32 29 22 18 18 16 16
53 58 45 42 40 42 41 46 42 32 29 28 26 24 26 25 22 26 25 24 22 21 23 31 42 49 53 57 57 53 50 52 53 49 50 53 60 50 46 42 38 32 28 21 20 19 18 18 16
54 55 54 41 46 43 46 40 28 26 29 32 29 26 25 23 23 19 20 22 23 24 24 24 30 42 50 53 56 52 49 53 51 49 54 64 51 46 43 41 36 28 25 21 21 22 22 20 19
54 49 54 46 37 40 47 44 36 39 38 36 31 30 30 30 29 26 20 21 23 23 23 25 29 31 42 49 53 52 50 54 57 64 60 54 46 42 39 36 30 22 23 23 20 22 21 20 21
47 58 47 46 39 44 45 44 36 34 33 33 31 30 30 31 30 28 26 24 23 23 23 25 27 34 42 49 55 56 56 58 56 54 52 46 40 36 36 29 22 22 24 22 22 21 22 23 22
51 54 53 44 43 48 44 40 34 30 31 32 29 27 26 26 24 26 27 26 27 27 27 28 33 40 47 55 68 67 68 66 54 47 44 39 36 34 32 28 23 24 24 23 20 22 24 25 23
58 63 60 46 41 48 44 44 36 32 31 28 26 23 21 20 21 21 25 26 26 27 28 31 37 45 51 55 58 60 69 72 54 41 39 33 29 32 28 26 25 25 25 25 23 24 25 25 25
57 63 60 61 49 45 48 44 28 21 21 21 23 23 22 21 20 19 20 24 26 28 32 36 44 52 55 54 58 58 51 53 47 39 42 39 34 26 29 26 25 26 26 28 27 27 26 26 27
62 44 50 57 63 66 47 53 31 24 24 22 20 20 20 20 20 21 20 22 24 30 38 42 52 56 56 59 55 54 56 59 49 34 39 45 40 31 24 25 24 26 26 27 26 23 25 24 28
60 50 52 56 64 68 56 83 34 30 31 26 21 19 18 19 20 21 23 24 23 32 44 50 56 57 58 55 54 56 57 48 39 38 39 38 34 29 24 24 25 25 24 26 25 26 25 25 21
57 59 61 62 75 93 55 68 39 27 23 22 20 18 18 17 21 22 23 25 26 35 51 57 59 58 56 55 54 58 56 50 38 38 37 36 33 26 25 24 25 24 26 27 27 28 29 27 26
66 87 80 87 96 64 34 49 41 25 24 22 20 18 20 20 20 24 27 31 36 40 55 58 58 59 56 56 56 56 51 40 40 37 34 28 26 26 26 24 22 24 28 28 27 28 29 28 27
72 70 71 68 52 40 40 61 32 21 22 20 23 24 32 33 32 26 27 35 39 47 54 55 56 56 55 56 56 50 44 42 37 31 27 24 25 24 24 22 22 22 23 24 25 27 28 29 28
80 94 57 81 55 71 44 32 25 21 23 24 24 34 38 38 41 36 29 33 38 47 52 54 54 54 54 52 45 39 39 37 41 32 27 27 24 22 22 22 22 23 24 24 25 22 24 26 28
68 56 90 95 85 68 39 33 33 26 24 26 30 34 38 41 41 40 33 35 40 46 52 52 50 52 50 45 37 39 40 40 32 29 28 27 21 21 22 22 22 23 23 24 25 25 26 26 27
85 95 97 72 75 65 48 31 19 23 21 24 33 38 45 47 44 46 38 43 48 51 56 55 52 50 47 41 39 41 41 34 27 27 25 22 21 21 22 21 22 22 23 23 22 24 26 29 32
42 58 65 94 84 85 84 61 22 26 33 40 35 38 44 51 52 54 53 55 58 61 59 56 51 48 45 40 36 37 32 29 25 25 21 20 20 20 21 21 21 22 23 22 21 24 28 32 35
Wind_Speed
9 7 3 4 7 5 6 4 4 3 4 0 4 7 4 7 3 2 5 7 8 16 15 17 16 17 16 15 14 11 9 7 8 9 11 10 9 7 7 6 6 6 7 6 7 8 8 8 8
7 4 3 2 7 9 7 6 7 1 5 8 6 7 8 2 1 5 10 6 10 15 14 16 16 17 16 15 13 12 10 8 7 12 11 9 6 5 6 6 6 6 6 6 5 7 7 6 5
4 4 4 4 8 12 6 7 6 2 4 3 3 3 3 2 2 4 6 10 13 15 13 14 16 16 15 14 12 11 10 8 8 13 10 8 6 7 6 6 6 6 6 6 6 6 6 5 5
4 4 3 9 14 9 9 2 3 3 3 0 3 5 3 2 2 4 9 9 14 14 13 16 16 16 15 14 12 11 10 10 11 11 9 7 6 6 7 7 7 6 6 5 5 4 4 4 4
4 3 9 12 18 13 9 6 7 6 5 4 4 1 0 3 3 5 11 10 13 13 12 15 16 16 15 15 13 11 11 11 11 10 8 5 3 2 5 7 8 6 5 3 2 2 3 2 3
6 5 9 16 17 9 11 10 10 10 6 6 5 4 1 4 4 7 11 10 11 13 11 13 14 16 15 14 13 12 11 11 10 8 6 4 5 6 7 11 8 5 3 1 2 4 4 4 4
13 10 15 17 13 14 12 6 12 11 9 7 3 5 4 3 6 8 10 10 11 12 12 11 13 14 12 12 12 11 11 10 9 8 6 5 7 9 12 10 7 4 2 3 4 5 4 5 6
6 8 15 13 14 18 6 6 4 8 6 1 2 5 3 5 5 8 9 10 11 11 11 11 12 12 12 12 10 10 9 8 8 6 5 6 6 5 7 7 6 4 3 3 5 7 7 8 9
3 9 12 20 16 10 4 9 7 1 6 2 2 2 4 2 6 8 9 9 10 10 11 11 12 11 11 11 10 9 9 9 8 8 7 6 4 5 6 8 4 3 4 6 7 9 8 6 9
11 11 16 9 11 7 8 5 2 6 9 10 7 4 3 3 6 10 11 11 12 13 13 12 12 12 11 8 10 10 10 8 8 7 8 5 5 4 2 4 3 4 5 10 9 7 3 3 3
8 14 11 6 8 4 9 9 8 10 13 13 12 4 1 1 2 8 10 9 10 11 11 13 12 12 12 10 8 6 6 6 6 8 7 6 4 6 4 4 4 4 2 3 4 1 4 5 4
9 12 10 5 7 6 11 8 13 15 18 7 7 7 9 10 8 6 9 11 9 10 12 13 14 13 14 9 9 8 7 7 6 8 8 6 5 5 4 3 4 4 4 4 1 3 4 4 5
12 9 7 8 8 10 12 18 19 19 19 18 17 15 16 15 14 10 8 9 9 11 12 14 15 14 14 14 10 9 9 8 8 8 9 7 6 6 5 5 4 4 3 2 2 3 3 4 5
1 6 9 8 12 11 16 21 17 22 20 22 22 24 22 21 19 14 11 10 11 12 12 13 16 16 15 14 14 10 9 9 8 8 8 9 6 6 5 5 5 4 3 2 2 3 3 3 4
5 10 11 14 12 14 10 19 20 25 21 23 21 20 19 21 21 19 17 14 11 10 11 12 13 15 16 15 13 11 10 10 9 8 11 9 8 9 8 6 5 4 3 3 3 3 2 2 3
4 5 6 4 3 6 9 15 6 10 14 19 19 19 21 22 23 22 20 17 13 11 10 10 9 14 16 14 13 11 11 10 10 10 9 10 10 10 8 6 5 5 3 3 3 2 2 3 4
8 8 9 10 8 7 12 12 5 2 5 11 13 13 14 15 18 20 20 18 15 13 12 11 11 13 15 15 12 13 13 11 9 8 7 11 11 10 8 6 6 6 4 4 3 3 4 4 5
6 10 10 11 2 9 16 21 19 19 21 20 19 18 17 17 17 14 15 15 15 15 13 12 10 12 13 11 11 10 10 9 9 8 7 11 10 11 8 7 7 6 4 4 3 4 4 5 6
5 8 11 10 9 18 19 23 23 21 24 24 23 22 22 23 20 17 16 14 13 12 13 13 12 12 11 12 12 11 11 9 8 7 11 11 10 9 9 7 7 6 5 5 4 3 4 4 7
13 15 17 16 14 13 20 33 25 27 30 26 25 25 24 24 23 21 19 18 16 15 14 13 13 14 14 11 11 10 9 5 8 8 9 11 11 9 8 10 8 7 6 6 5 4 2 3 6
16 17 15 17 17 19 21 29 13 4 11 16 21 23 24 23 23 22 22 21 17 16 14 14 14 15 15 15 11 10 9 8 6 9 7 7 6 10 8 10 8 8 6 5 5 5 5 3 3
15 12 13 13 11 6 2 14 16 14 13 11 12 14 17 18 21 22 23 21 20 16 14 14 15 17 17 19 15 19 12 13 10 10 7 6 6 7 10 10 9 8 6 6 5 4 4 2 3
7 5 7 9 13 14 17 8 11 6 11 10 14 15 15 15 15 19 20 21 20 17 14 15 16 17 17 19 17 14 14 10 11 10 13 9 7 7 10 9 9 8 6 6 5 4 3 2 2
3 6 10 10 8 11 18 16 21 16 11 9 8 10 14 14 12 16 17 17 17 15 14 15 18 18 18 18 19 19 19 17 14 11 10 8 7 7 9 9 8 8 7 6 5 4 4 2 1
12 4 4 5 7 9 2 13 22 6 6 10 19 17 14 15 14 13 14 15 15 15 16 16 18 18 19 19 19 18 19 19 21 17 12 15 10 8 9 9 8 7 7 6 5 4 3 1 2
15 13 7 7 7 7 3 14 10 10 11 13 8 12 11 14 14 15 15 14 16 17 18 18 19 18 19 19 18 14 15 11 11 12 12 11 10 9 10 8 8 8 7 6 4 3 1 1 2
6 12 14 16 22 15 15 23 26 25 24 17 14 6 9 14 15 13 14 13 14 16 19 20 19 18 19 18 15 14 13 14 12 13 12 8 12 10 11 10 9 7 6 5 4 2 1 2 2
13 1 6 7 7 13 15 18 14 12 10 8 9 4 10 12 16 12 11 11 13 15 17 17 17 18 18 18 16 13 14 13 14 12 13 13 13 12 11 10 8 7 6 4 2 1 1 3 3
10 8 7 9 11 9 17 15 7 9 12 16 4 5 7 12 14 14 8 7 10 13 15 16 16 18 18 16 16 16 13 14 14 11 12 14 13 12 11 9 8 6 5 3 1 1 2 5 5
17 14 20 10 12 9 13 20 7 4 1 4 6 5 5 9 11 11 7 5 9 13 15 16 16 16 16 16 17 15 15 13 15 12 13 13 12 11 10 9 7 5 4 1 1 3 4 5 6
Wind_Direction
307 313 292 234 242 240 239 219 273 248 215 346 307 257 304 328 249 8 121 139 155 154 160 169 159 157 151 149 143 141 138 137 150 157 139 127 100 76 100 79 71 52 46 44 37 55 58 57 63
315 295 231 254 251 234 221 216 216 209 319 307 270 236 243 236 3 90 141 152 168 154 160 165 154 147 149 149 147 145 147 141 140 136 134 117 109 143 132 113 96 73 61 67 61 51 54 53 52
260 306 256 238 239 239 255 200 179 334 318 240 251 249 299 71 103 115 79 145 168 158 160 139 147 146 150 151 150 151 149 148 134 143 127 145 142 152 147 134 111 89 86 80 73 62 49 42 29
212 186 187 239 232 237 249 184 126 303 165 57 333 244 186 33 68 65 129 154 164 163 161 133 152 151 152 154 156 154 149 147 147 134 146 164 175 175 183 173 138 121 112 96 84 63 51 29 8
204 228 236 236 242 244 234 253 261 280 298 309 320 99 245 115 116 118 144 156 169 165 165 155 161 157 155 158 161 159 158 154 147 151 163 104 106 250 236 169 146 134 118 100 65 19 19 349 325
194 250 225 232 233 219 248 254 260 260 272 290 248 262 65 98 159 138 150 159 161 166 167 155 161 155 156 163 165 164 162 166 160 161 160 130 62 353 183 151 145 140 124 84 7 5 350 337 339
233 218 232 243 244 242 238 233 245 264 261 250 313 247 92 121 87 142 147 150 165 168 169 168 167 158 157 166 166 165 166 166 172 176 173 111 70 36 137 133 138 135 111 28 5 354 342 348 17
239 241 233 230 236 243 193 207 253 245 249 337 255 224 150 39 126 149 152 156 164 167 172 177 174 179 175 171 167 164 159 158 158 163 146 120 106 81 102 128 107 85 56 28 18 13 60 71 60
220 228 227 227 234 225 206 216 196 237 246 211 175 288 35 33 162 171 170 170 170 178 178 182 181 184 182 178 165 168 162 158 152 155 130 163 197 164 167 71 88 74 47 44 54 64 65 96 90
213 230 235 242 246 232 209 242 224 233 211 225 215 166 70 115 188 201 201 192 189 186 185 184 188 188 188 181 172 185 171 179 180 176 173 191 181 159 135 113 96 80 82 84 76 73 100 286 15
204 234 231 229 240 242 245 242 239 245 242 239 231 237 285 300 176 233 235 231 204 198 188 193 186 188 191 187 188 185 183 184 177 177 174 171 174 171 181 158 165 152 123 80 77 112 45 37 13
229 238 245 246 226 255 246 268 246 242 249 274 278 277 283 270 263 253 238 235 217 210 206 196 189 189 194 191 196 193 190 185 182 182 175 169 166 169 164 154 97 98 86 98 126 60 47 36 24
232 248 248 253 252 257 269 255 260 266 255 255 261 262 263 267 266 263 246 245 226 221 210 204 200 196 193 197 192 193 198 192 187 179 176 174 169 157 135 121 102 88 103 57 65 51 35 20 8
259 260 266 262 256 262 260 262 256 251 255 256 254 255 253 253 258 257 245 241 232 231 221 204 202 202 198 200 193 190 191 188 184 179 177 177 156 137 134 119 109 93 76 72 43 45 29 11 349
263 277 267 255 249 260 261 260 242 254 255 255 252 248 249 251 247 247 252 249 246 238 231 221 213 206 207 203 199 192 186 182 184 180 174 169 150 143 138 128 122 111 106 115 79 58 13 347 337
257 262 274 113 192 223 210 264 253 270 241 251 252 254 253 247 248 251 250 254 252 252 228 216 210 214 211 207 197 195 185 181 182 176 170 158 149 141 132 128 122 126 135 101 72 19 1 348 336
217 261 238 281 246 269 214 277 257 245 250 262 264 261 260 259 254 254 252 251 248 246 243 219 214 217 211 208 198 194 187 179 172 158 155 154 144 140 127 122 138 141 121 98 91 57 10 1 349
246 230 243 254 175 266 268 264 266 268 274 272 268 265 259 256 255 258 250 246 246 242 238 239 223 213 200 196 192 191 177 167 162 146 147 145 140 138 125 136 140 127 121 111 103 74 51 15 348
276 269 266 271 277 299 273 272 274 272 268 264 261 258 260 259 256 249 255 252 239 234 232 226 209 196 185 187 173 179 172 165 153 138 138 142 138 131 133 138 137 123 114 102 85 88 42 30 354
253 265 269 276 273 280 292 286 285 271 260 257 256 256 254 253 253 248 240 244 238 236 221 216 209 191 189 179 183 179 151 142 141 131 113 125 140 133 145 140 133 129 123 103 82 60 83 48 16
237 249 264 271 293 289 285 284 258 279 258 252 249 254 258 253 249 247 239 234 232 230 220 211 201 188 183 182 161 142 117 117 130 137 109 110 121 135 150 138 131 126 119 105 90 69 38 43 53
256 258 259 268 283 271 78 291 286 284 282 245 249 244 247 249 243 245 245 237 227 223 216 204 190 186 181 163 169 168 161 162 159 146 137 121 123 146 138 134 130 123 118 114 103 88 70 359 23
239 220 236 261 266 284 247 253 277 198 262 252 261 266 262 259 254 240 240 235 230 218 201 197 185 182 177 176 174 170 159 145 140 133 124 119 137 152 139 133 129 121 114 114 117 117 93 67 359
61 227 248 257 256 245 243 208 273 265 269 248 243 277 290 283 269 253 242 238 226 215 193 187 181 182 180 177 173 169 155 150 145 142 135 134 149 147 138 134 125 122 123 127 125 118 107 87 342
218 172 251 231 209 249 337 210 249 276 213 237 280 298 309 300 278 265 249 229 224 201 191 186 182 180 179 174 173 165 160 162 159 152 154 154 156 152 147 140 134 127 127 130 135 129 130 167 287
204 212 231 258 237 296 142 246 243 250 261 257 282 294 324 327 300 265 246 224 214 198 188 187 183 175 176 169 165 154 150 153 157 161 157 156 152 147 148 136 130 133 136 138 141 139 158 219 268
173 214 234 277 272 272 253 262 278 267 255 250 259 287 310 337 327 284 246 224 217 197 183 183 183 175 172 162 154 140 143 148 149 151 150 142 134 139 142 137 136 138 139 141 148 156 201 249 263
222 303 195 200 256 246 249 255 254 270 307 235 212 282 321 337 354 325 257 225 204 195 179 175 178 172 165 154 146 134 133 127 145 150 139 134 134 139 139 138 140 143 141 144 163 194 201 270 296
192 219 217 277 245 260 269 261 312 306 273 235 246 310 328 330 357 348 291 221 192 178 165 162 165 161 156 152 140 130 128 135 136 133 135 131 135 138 139 140 142 145 144 143 195 248 275 297 309
228 231 223 233 236 240 254 262 220 242 232 214 298 319 348 336 348 6 331 199 175 163 158 157 152 155 152 142 130 122 131 131 136 135 133 133 132 134 136 137 137 136 131 158 269 293 292 302 299